This is the latest recevied weather packets stored in our database for station/object IV3CGM-13. If no packets are shown the sender has not sent any weather packets the latest 10 day(s).
| Time | Temp. | Humidity | Pressure | Rain* | Wind** | Luminosity | Snow |
|---|---|---|---|---|---|---|---|
| 1777220902 | 20.56° C | 47% | 1016.3 hPa | 0 mm | - | 104 W/m² | - |
| 1777220201 | 21.67° C | 45% | 1016.4 hPa | 0 mm | - | 149 W/m² | - |
| 1777219513 | 22.78° C | 43% | 1016.5 hPa | 0 mm | - | 181 W/m² | - |
| 1777218826 | 22.78° C | 39% | 1016.5 hPa | 0 mm | - | 216 W/m² | - |
| 1777218140 | 23.89° C | 36% | 1016.6 hPa | 0 mm | - | 251 W/m² | - |
| 1777217402 | 23.33° C | 35% | 1016.6 hPa | 0 mm | - | 290 W/m² | - |
| 1777216701 | 23.89° C | 33% | 1016.5 hPa | 0 mm | - | 331 W/m² | - |
| 1777216013 | 24.44° C | 31% | 1016.6 hPa | 0 mm | - | 372 W/m² | - |
| 1777215325 | 23.89° C | 31% | 1016.6 hPa | 0 mm | - | 407 W/m² | - |
| 1777214638 | 23.89° C | 32% | 1016.6 hPa | 0 mm | - | 452 W/m² | - |
| 1777213901 | 24.44° C | 30% | 1016.6 hPa | 0 mm | - | 492 W/m² | - |
| 1777213200 | 25° C | 28% | 1016.5 hPa | 0 mm | - | 535 W/m² | - |
| 1777212513 | 24.44° C | 29% | 1016.6 hPa | 0 mm | - | 571 W/m² | - |
| 1777211825 | 23.89° C | 31% | 1016.6 hPa | 0 mm | - | 595 W/m² | - |
| 1777211137 | 23.89° C | 30% | 1016.7 hPa | 0 mm | - | 630 W/m² | - |
| 1777210401 | 23.89° C | 33% | 1016.8 hPa | 0 mm | - | 664 W/m² | - |
| 1777209699 | 23.33° C | 31% | 1016.8 hPa | 0 mm | - | 671 W/m² | - |
| 1777209012 | 23.33° C | 33% | 1016.9 hPa | 0 mm | - | 706 W/m² | - |
| 1777208325 | 23.89° C | 32% | 1017 hPa | 0 mm | - | 720 W/m² | - |
| 1777207637 | 23.89° C | 32% | 1017.1 hPa | 0 mm | - | 739 W/m² | - |
| 1777206950 | 23.89° C | 35% | 1017.3 hPa | 0 mm | - | 765 W/m² | - |
| 1777206262 | 23.89° C | 36% | 1017.3 hPa | 0 mm | - | 781 W/m² | - |
| 1777205588 | 23.89° C | 36% | 1017.3 hPa | 0 mm | - | 786 W/m² | - |
| 1777204887 | 22.78° C | 36% | 1017.3 hPa | 0 mm | - | 798 W/m² | - |
| 1777204187 | 22.78° C | 37% | 1017.3 hPa | 0 mm | - | 804 W/m² | - |
* Rain latest hour (hover to see other rain measurements)
** Current wind speed in m/s (hover to see current wind gust speed)